[[{"header":{"parameterUnit":"m.s-1","parameterCategory":1,"la1":30.2991,"la2":30.254,"lo1":-89.0895,"lo2":-89.0444,"dy":0.0017,"dx":0.0017,"nx":28,"ny":28,"refTime":"2023-09-10T03:00:00:Z","depth":0,"parameterNumber":2,"parameterNumberName":"U-component_of_WINDS"},"data":[0,0,0,0,0,0,0,0,0,0,0,0,0,0,0,0,0,0,0,0,0,0,0,0,0,0,0,0,0,0,0,0,0,0,0,0,0,0,0,0,0,0,0,0,0,0,0,0,0,0,0,0,0,0,0,0,0,0,-0.174,-0.174,0,-0.1695,-0.1695,-0.1694,-0.1603,-0.1601,-0.1599,-0.1597,-0.1554,-0.1554,-0.1555,0,0,0,0,0,0,0,0,0,0,0,0,0,-0.1748,-0.1748,-0.174,-0.174,-0.1739,-0.1695,-0.1695,-0.1694,-0.1603,-0.1601,-0.1599,-0.1596,-0.1554,-0.1554,-0.1555,0,0,0,0,0,0,0,0,0,0,0,0,0,-0.1728,-0.1748,-0.174,-0.1688,-0.1683,-0.1696,-0.1695,-0.1694,-0.1604,-0.1601,-0.1598,-0.1595,-0.1553,-0.1554,-0.1555,-0.1615,0,0,-0.1558,-0.1558,0,0,0,0,0,0,0,0,-0.1729,-0.1728,-0.1697,-0.1692,-0.1686,-0.1652,-0.1681,-0.1668,-0.1604,-0.1634,-0.1597,-0.1594,-0.1589,-0.1587,-0.1584,-0.1613,-0.1611,-0.1558,-0.1558,-0.1558,-0.1559,0,0,0,0,0,0,0,-0.1731,-0.1729,-0.1723,-0.1696,-0.169,-0.1667,-0.1662,-0.1678,-0.1627,-0.1631,-0.1624,-0.162,-0.1585,-0.1584,-0.1583,-0.1611,-0.1558,-0.1558,-0.1559,-0.1559,-0.1684,-0.1687,0,0,0,0,0,0,-0.174,-0.1731,-0.1724,-0.1721,-0.1701,-0.167,-0.1663,-0.1666,-0.1627,-0.1618,-0.1623,-0.1616,-0.1584,-0.1582,-0.1581,-0.1647,-0.1558,-0.1559,-0.156,-0.1682,-0.1685,-0.1688,0,0,0,0,0,0,-0.174,-0.174,-0.1726,-0.1724,-0.1721,-0.1672,-0.1676,-0.1666,-0.1664,-0.162,-0.1611,-0.163,-0.1581,-0.1579,-0.1607,-0.1645,-0.156,-0.156,-0.1678,-0.1683,-0.1687,-0.1783,0,0,0,0,0,0,-0.1741,-0.1741,-0.1763,-0.1725,-0.1721,-0.1753,-0.1678,-0.1667,-0.1666,-0.1657,-0.1625,-0.1617,-0.1579,-0.1606,-0.1607,-0.1644,-0.1561,-0.1675,-0.168,-0.1685,-0.1776,-0.179,-0.1801,0,0,0,0,0,-0.1741,-0.1793,-0.1765,-0.1764,-0.1748,-0.1755,-0.1753,-0.1707,-0.1669,-0.1691,-0.1663,-0.1618,-0.164,-0.1609,-0.161,-0.1648,-0.1672,-0.1679,-0.1685,-0.177,-0.1787,-0.1801,0,0,0,0,0,0,-0.1838,-0.1787,-0.1755,-0.1796,-0.178,-0.174,-0.1766,-0.1727,-0.1723,-0.1715,-0.1659,-0.1652,-0.1687,-0.167,-0.1637,-0.1703,-0.1649,-0.1656,-0.1713,-0.1729,-0.1741,-0.1745,-0.1562,0,0,0,0,0,-0.1863,-0.1873,-0.1828,-0.1869,-0.1862,-0.1816,-0.1817,-0.1783,-0.1765,-0.1759,-0.1732,-0.1717,-0.172,-0.1723,-0.1724,-0.1772,-0.1764,-0.1799,-0.1811,-0.1822,-0.1829,-0.1852,-0.1867,-0.1709,-0.1709,-0.1709,0,0,-0.1917,-0.1891,-0.19,-0.1887,-0.1871,-0.1882,-0.1811,-0.1826,-0.1834,-0.1761,-0.1785,-0.1765,-0.1744,-0.1781,-0.1797,-0.1768,-0.187,-0.183,-0.1839,-0.184,-0.186,-0.1875,-0.1889,-0.1713,-0.1713,-0.1712,0,0,-0.2021,-0.2002,-0.2033,-0.2018,-0.1993,-0.1962,-0.1969,-0.1934,-0.1917,-0.194,-0.1885,-0.1893,-0.19,-0.1887,-0.1881,-0.1977,-0.1936,-0.1979,-0.2046,-0.2069,-0.2082,-0.2093,-0.2126,-0.2139,-0.1986,-0.1986,-0.1986,0,-0.2091,-0.2106,-0.2054,-0.2072,-0.2068,-0.2,-0.2031,-0.2019,-0.1997,-0.1995,-0.1963,-0.1969,-0.195,-0.1983,-0.2007,-0.2004,-0.2011,-0.1983,-0.2084,-0.2094,-0.2104,-0.2135,-0.2148,-0.1991,-0.1991,-0.199,-0.199,0,-0.2193,-0.2203,-0.2231,-0.221,-0.2208,-0.2233,-0.2185,-0.2189,-0.2155,-0.2127,-0.215,-0.2124,-0.2118,-0.2123,-0.209,-0.2151,-0.2134,-0.2094,-0.2038,-0.2125,-0.2154,-0.2165,-0.1999,-0.1997,-0.1996,-0.1994,0,0,-0.2358,-0.2306,-0.2317,-0.2306,-0.2273,-0.2281,-0.2301,-0.2294,-0.2299,-0.2285,-0.2301,-0.2307,-0.2269,-0.2263,-0.2227,-0.2248,-0.2324,-0.2205,-0.2203,-0.2228,-0.2389,-0.242,-0.2434,-0.2296,-0.2298,-0.23,-0.239,0,-0.2455,-0.2487,-0.244,-0.2483,-0.2492,-0.2426,-0.2444,-0.2426,-0.24,-0.2403,-0.2374,-0.2379,-0.2329,-0.2324,-0.2341,-0.2312,-0.2356,-0.2304,-0.231,-0.2311,-0.2318,-0.2449,-0.2482,-0.2569,-0.2401,-0.2403,-0.2405,0,-0.2572,-0.2563,-0.2606,-0.2569,-0.2571,-0.2588,-0.2576,-0.258,-0.2558,-0.2537,-0.2529,-0.2486,-0.2503,-0.2449,-0.2471,-0.2437,-0.2436,-0.2422,-0.2424,-0.2424,-0.2364,-0.2453,-0.2596,-0.2609,-0.2422,-0.2421,-0.2419,0,-0.2688,-0.2686,-0.2711,-0.2704,-0.2661,-0.2675,-0.2658,-0.2632,-0.263,-0.262,-0.2618,-0.261,-0.2606,-0.2601,-0.2557,-0.2522,-0.2585,-0.2527,-0.2568,-0.257,-0.2586,-0.2585,-0.2731,-0.2585,-0.2585,-0.2585,-0.2584,0,-0.2801,-0.283,-0.2763,-0.2779,-0.2809,-0.2754,-0.2786,-0.2762,-0.2739,-0.2749,-0.2692,-0.2703,-0.2644,-0.2648,-0.2613,-0.2637,-0.2636,-0.2619,-0.261,-0.2624,-0.2627,-0.2624,-0.2617,-0.2588,-0.2587,-0.2587,-0.2586,0,-0.2936,-0.2892,-0.2915,-0.2872,-0.2862,-0.2886,-0.2849,-0.2862,-0.2831,-0.2844,-0.2843,-0.2795,-0.2796,-0.2751,-0.2744,-0.2721,-0.276,-0.2739,-0.2767,-0.2761,-0.2804,-0.2801,-0.2954,-0.2971,-0.2814,-0.2816,-0.2817,0,-0.3012,-0.3032,-0.2991,-0.2992,-0.2978,-0.2982,-0.2979,-0.2925,-0.2925,-0.2899,-0.2915,-0.2911,-0.2906,-0.2911,-0.2875,-0.2869,-0.2848,-0.2901,-0.2846,-0.286,-0.2848,-0.2847,-0.2849,-0.2914,-0.2916,-0.2917,-0.2919,0,-0.315,-0.3126,-0.3124,-0.3113,-0.3111,-0.31,-0.3086,-0.3091,-0.3032,-0.3034,-0.3034,-0.3029,-0.3021,-0.3018,-0.3004,-0.2986,-0.2943,-0.2936,-0.2945,-0.296,-0.2975,-0.2967,-0.2799,-0.2933,-0.2931,-0.293,-0.293,-0.2929,-0.3257,-0.3271,-0.3244,-0.3242,-0.3226,-0.3213,-0.3222,-0.3191,-0.319,-0.3179,-0.3147,-0.3152,-0.3127,-0.3104,-0.309,-0.3093,-0.3066,-0.308,-0.3083,-0.3087,-0.3095,-0.2975,-0.3091,-0.309,-0.309,-0.3089,-0.3089,0,-0.3391,-0.337,-0.3369,-0.335,-0.3349,-0.3306,-0.3288,-0.3289,-0.3294,-0.3275,-0.3269,-0.3269,-0.3265,-0.3228,-0.322,-0.3229,-0.3209,-0.3229,-0.3228,-0.3224,-0.312,-0.3113,-0.3245,-0.3245,-0.3245,-0.3245,-0.3245,-0.3245,-0.3461,-0.3483,-0.3456,-0.3469,-0.3447,-0.3451,-0.3444,-0.3432,-0.3416,-0.3417,-0.3413,-0.3389,-0.3362,-0.3351,-0.3345,-0.3334,-0.3334,-0.336,-0.3343,-0.3247,-0.3232,-0.3217,-0.321,-0.3361,-0.3361,-0.3446,-0.3447,-0.3448]},{"header":{"parameterUnit":"m.s-1","parameterCategory":1,"la1":30.2991,"la2":30.254,"lo1":-89.0895,"lo2":-89.0444,"dy":0.0017,"dx":0.0017,"nx":28,"ny":28,"refTime":"2023-09-10T03:00:00:Z","depth":0,"parameterNumber":3,"parameterNumberName":"V-component_of_WINDS"},"data":[0,0,0,0,0,0,0,0,0,0,0,0,0,0,0,0,0,0,0,0,0,0,0,0,0,0,0,0,0,0,0,0,0,0,0,0,0,0,0,0,0,0,0,0,0,0,0,0,0,0,0,0,0,0,0,0,0,0,-2.7664,-2.7666,0,-2.7837,-2.7839,-2.7841,-2.7867,-2.7865,-2.7864,-2.7862,-2.8037,-2.8043,-2.8049,0,0,0,0,0,0,0,0,0,0,0,0,0,-2.7356,-2.7362,-2.7664,-2.7666,-2.7669,-2.7837,-2.7839,-2.7841,-2.7867,-2.7865,-2.7863,-2.7862,-2.8035,-2.8043,-2.805,0,0,0,0,0,0,0,0,0,0,0,0,0,-2.7505,-2.7363,-2.7664,-2.7702,-2.7707,-2.7836,-2.7839,-2.7842,-2.7868,-2.7865,-2.7863,-2.7861,-2.8033,-2.8042,-2.8051,-2.8154,0,0,-2.8079,-2.8083,0,0,0,0,0,0,0,0,-2.7497,-2.7517,-2.7694,-2.7699,-2.7705,-2.7828,-2.7795,-2.7947,-2.7868,-2.7806,-2.7862,-2.786,-2.797,-2.7984,-2.8021,-2.8162,-2.817,-2.808,-2.8085,-2.8089,-2.8092,0,0,0,0,0,0,0,-2.7487,-2.7509,-2.7733,-2.7697,-2.7704,-2.771,-2.7728,-2.7824,-2.7899,-2.7812,-2.7814,-2.7834,-2.7972,-2.8012,-2.8026,-2.8172,-2.808,-2.8088,-2.8093,-2.8097,-2.8407,-2.841,0,0,0,0,0,0,-2.7469,-2.7501,-2.7727,-2.7738,-2.7593,-2.7717,-2.7738,-2.7791,-2.7898,-2.7912,-2.7836,-2.7835,-2.7998,-2.8015,-2.8032,-2.816,-2.8089,-2.8098,-2.8103,-2.8405,-2.8408,-2.8411,0,0,0,0,0,0,-2.7463,-2.7489,-2.772,-2.762,-2.765,-2.7725,-2.7784,-2.7796,-2.7836,-2.7916,-2.793,-2.7863,-2.7997,-2.8019,-2.8124,-2.8166,-2.8102,-2.811,-2.8401,-2.8406,-2.841,-2.8416,0,0,0,0,0,0,-2.7454,-2.7487,-2.7527,-2.7621,-2.7655,-2.781,-2.7787,-2.7801,-2.7852,-2.7852,-2.7945,-2.7959,-2.7997,-2.811,-2.8133,-2.8178,-2.8117,-2.8398,-2.8403,-2.8408,-2.8413,-2.842,-2.8427,0,0,0,0,0,-2.7443,-2.7522,-2.7529,-2.7556,-2.7707,-2.7812,-2.7832,-2.7874,-2.7855,-2.7896,-2.7948,-2.7956,-2.8158,-2.812,-2.8147,-2.8195,-2.8395,-2.8402,-2.8408,-2.8409,-2.8419,-2.8426,0,0,0,0,0,0,-2.743,-2.7534,-2.7544,-2.7655,-2.7725,-2.7816,-2.7869,-2.7882,-2.7958,-2.7955,-2.8004,-2.8025,-2.8127,-2.8172,-2.8128,-2.83,-2.8275,-2.8287,-2.8267,-2.8277,-2.8284,-2.8271,-2.8125,0,0,0,0,0,-2.7441,-2.7517,-2.7604,-2.7694,-2.7729,-2.7793,-2.784,-2.7867,-2.7941,-2.797,-2.8029,-2.81,-2.818,-2.8231,-2.8308,-2.842,-2.844,-2.8466,-2.8472,-2.8478,-2.8487,-2.8549,-2.8562,-2.8431,-2.8431,-2.8431,0,0,-2.7462,-2.7529,-2.7574,-2.7694,-2.775,-2.7829,-2.7817,-2.79,-2.7959,-2.7982,-2.8085,-2.8131,-2.8213,-2.8322,-2.8373,-2.8362,-2.8528,-2.8486,-2.8489,-2.8496,-2.8557,-2.8569,-2.858,-2.8436,-2.8435,-2.8434,0,0,-2.7542,-2.76,-2.7682,-2.7739,-2.7826,-2.7868,-2.7888,-2.7978,-2.801,-2.8114,-2.8133,-2.8203,-2.8339,-2.8397,-2.8444,-2.8547,-2.8557,-2.8571,-2.8607,-2.8667,-2.8677,-2.8687,-2.8723,-2.8736,-2.858,-2.858,-2.858,0,-2.7558,-2.7677,-2.7722,-2.7805,-2.7857,-2.7882,-2.7965,-2.8019,-2.8126,-2.8161,-2.8148,-2.832,-2.8377,-2.8499,-2.8524,-2.8562,-2.8586,-2.856,-2.8672,-2.8682,-2.8692,-2.8727,-2.8741,-2.8581,-2.8581,-2.8581,-2.8581,0,-2.7693,-2.7775,-2.7831,-2.7934,-2.7992,-2.8075,-2.8132,-2.8185,-2.8207,-2.8251,-2.8357,-2.8426,-2.8519,-2.855,-2.8572,-2.8676,-2.8667,-2.8663,-2.8638,-2.8704,-2.8738,-2.8752,-2.8583,-2.8582,-2.8582,-2.8582,0,0,-2.7768,-2.7896,-2.7916,-2.7963,-2.8061,-2.8126,-2.8209,-2.83,-2.8345,-2.8419,-2.849,-2.8605,-2.8602,-2.8656,-2.8685,-2.8737,-2.8814,-2.8727,-2.873,-2.874,-2.8933,-2.8935,-2.895,-2.8822,-2.8825,-2.8827,-2.8926,0,-2.7859,-2.8009,-2.8052,-2.8179,-2.8256,-2.8282,-2.8355,-2.8422,-2.8466,-2.8537,-2.8584,-2.8665,-2.8655,-2.8688,-2.8741,-2.8793,-2.8853,-2.8787,-2.8888,-2.8891,-2.8866,-2.8968,-2.897,-2.906,-2.894,-2.8942,-2.8944,0,-2.7985,-2.8061,-2.8196,-2.8284,-2.8318,-2.8383,-2.847,-2.8538,-2.8615,-2.8643,-2.8704,-2.8728,-2.8816,-2.8788,-2.891,-2.8863,-2.8908,-2.894,-2.8944,-2.8955,-2.8921,-2.898,-2.909,-2.9103,-2.8965,-2.8963,-2.8962,0,-2.8026,-2.8163,-2.8261,-2.8301,-2.8407,-2.8451,-2.8498,-2.8573,-2.8625,-2.8701,-2.8736,-2.8821,-2.8867,-2.8933,-2.898,-2.8954,-2.9098,-2.9073,-2.9123,-2.9122,-2.9151,-2.9148,-2.9268,-2.918,-2.918,-2.918,-2.918,0,-2.8122,-2.8203,-2.8281,-2.8341,-2.8433,-2.8482,-2.8571,-2.8618,-2.8685,-2.8755,-2.8783,-2.8848,-2.8906,-2.8979,-2.9016,-2.9111,-2.9132,-2.9157,-2.9165,-2.9154,-2.9151,-2.9183,-2.9177,-2.9184,-2.9183,-2.9182,-2.9181,0,-2.8183,-2.8238,-2.8347,-2.8439,-2.8464,-2.8527,-2.8606,-2.8665,-2.871,-2.8798,-2.8821,-2.8891,-2.8978,-2.9032,-2.9142,-2.9167,-2.9272,-2.9279,-2.9246,-2.925,-2.9296,-2.9291,-2.9441,-2.9463,-2.936,-2.9361,-2.9362,0,-2.8241,-2.8304,-2.8403,-2.8452,-2.8499,-2.8577,-2.8631,-2.8682,-2.8736,-2.883,-2.8878,-2.8967,-2.9041,-2.9179,-2.9239,-2.9324,-2.9332,-2.9379,-2.9345,-2.9332,-2.9333,-2.9328,-2.9334,-2.9384,-2.9385,-2.9386,-2.9386,0,-2.8337,-2.8361,-2.8438,-2.8524,-2.8588,-2.8658,-2.8728,-2.8766,-2.8829,-2.8889,-2.8979,-2.9036,-2.915,-2.9237,-2.9327,-2.9375,-2.9391,-2.9397,-2.9413,-2.9401,-2.9379,-2.9391,-2.9261,-2.9393,-2.9392,-2.9392,-2.9391,-2.9391,-2.8398,-2.8455,-2.8534,-2.8618,-2.8677,-2.8742,-2.8802,-2.8855,-2.8931,-2.9027,-2.9053,-2.9146,-2.9223,-2.9346,-2.9395,-2.9469,-2.9462,-2.9485,-2.9491,-2.9496,-2.9497,-2.9368,-2.9486,-2.9486,-2.9486,-2.9486,-2.9486,0,-2.8495,-2.8547,-2.8625,-2.8722,-2.8789,-2.8799,-2.8878,-2.8932,-2.9015,-2.9085,-2.9157,-2.9261,-2.9346,-2.9414,-2.9502,-2.9548,-2.9558,-2.957,-2.9566,-2.9577,-2.9498,-2.9475,-2.956,-2.956,-2.956,-2.956,-2.956,-2.956,-2.8553,-2.8651,-2.8685,-2.8812,-2.8864,-2.8956,-2.9,-2.906,-2.9117,-2.9231,-2.9302,-2.9346,-2.9416,-2.9509,-2.9588,-2.9606,-2.9637,-2.9647,-2.9666,-2.9591,-2.9582,-2.9575,-2.9553,-2.9653,-2.9653,-2.9739,-2.9739,-2.974]}]]